Weather History for Auburn-Lewiston, ME

Change the Weather History Date:

Monday, December 31, 2012

  Actual Average Record
Temperature  
Mean Temperature 24 °F -  
Max Temperature 33 °F 28 °F 44 °F (2010)
Min Temperature 14 °F 13 °F -14 °F (1998)
Degree Days  
Heating Degree Days 42    
Moisture  
Dew Point 11 °F    
Average Humidity 60    
Maximum Humidity 86    
Minimum Humidity 47    
Precipitation  
Precipitation 0.00 in - - ()
Sea Level Pressure  
Sea Level Pressure 29.81 in    
Wind  
Wind Speed 9 mph (WNW)    
Max Wind Speed 17 mph    
Max Gust Speed 26 mph    
Visibility 10 miles    
Events      
Averages and records for this station are not official NWS values.
T = Trace of Precipitation, MM = Missing Value Source: NWS Daily Summary

Daily Weather History Graph

Daily Weather History Graph

Search for Another Location

Airport:

Trip Planner

Search our weather history database for the weather conditions in past years. The results will help you decide how hot, cold, wet, or windy it might be!

Date:

Astronomy

Dec. 31, 2012 Rise Set
Actual Time 7:16 AM EST 4:12 PM EST
Civil Twilight 6:43 AM EST 4:45 PM EST
Nautical Twilight 6:06 AM EST 5:22 PM EST
Astronomical Twilight 5:31 AM EST 5:57 PM EST
Moon 7:48 PM EST (12/31) 8:49 AM EST (12/31)
Length of Visible Light 10h 02m
Length of Day
8h 56m
Waning Gibbous, 90% of the Moon is Illuminated
Dec 31
Waning Gibbous
Jan 4
Last Quarter
Jan 11
New
Jan 18
First Quarter
Jan 26
Full

Hourly Weather History & Observations

Time (EST) Temp. Windchill Dew Point Humidity Pressure Visibility Wind Dir Wind Speed Gust Speed Precip Events Conditions
12:15 AM 14.0 °F 0.5 °F 1.4 °F 57% 29.82 in 10.0 mi NNW 11.5 mph 18.4 mph N/A   Clear
12:35 AM 14.0 °F -0.2 °F 1.4 °F 57% 29.81 in 10.0 mi NNW 12.7 mph 21.9 mph N/A   Clear
12:55 AM 14.0 °F 2.0 °F 1.4 °F 57% 29.81 in 10.0 mi NW 9.2 mph 19.6 mph N/A   Clear
1:15 AM 14.0 °F 2.9 °F 3.2 °F 62% 29.81 in 10.0 mi NW 8.1 mph - N/A   Clear
1:35 AM 15.8 °F 3.4 °F 3.2 °F 58% 29.83 in 10.0 mi WNW 10.4 mph 16.1 mph N/A   Clear
1:55 AM 15.8 °F 3.4 °F 3.2 °F 58% 29.84 in 10.0 mi WNW 10.4 mph - N/A   Clear
2:15 AM 15.8 °F 2.7 °F 3.2 °F 58% 29.84 in 10.0 mi WNW 11.5 mph - N/A   Clear
2:35 AM 15.8 °F 4.2 °F 3.2 °F 58% 29.84 in 10.0 mi WNW 9.2 mph - N/A   Clear
2:55 AM 15.8 °F 3.4 °F 3.2 °F 58% 29.85 in 10.0 mi WNW 10.4 mph - N/A   Clear
3:15 AM 17.6 °F 5.7 °F 3.2 °F 53% 29.85 in 10.0 mi WNW 10.4 mph - N/A   Clear
3:35 AM 17.6 °F 6.4 °F 3.2 °F 53% 29.84 in 10.0 mi WNW 9.2 mph - N/A   Clear
3:55 AM 17.6 °F 5.7 °F 3.2 °F 53% 29.84 in 10.0 mi NW 10.4 mph 18.4 mph N/A   Clear
4:15 AM 19.4 °F 7.9 °F 3.2 °F 49% 29.85 in 10.0 mi WNW 10.4 mph 21.9 mph N/A   Clear
4:35 AM 17.6 °F 5.7 °F 3.2 °F 53% 29.84 in 10.0 mi WNW 10.4 mph - N/A   Clear
4:55 AM 19.4 °F 7.2 °F 3.2 °F 49% 29.84 in 10.0 mi NW 11.5 mph 18.4 mph N/A   Clear
5:15 AM 17.6 °F 4.3 °F 3.2 °F 53% 29.83 in 10.0 mi NNW 12.7 mph 21.9 mph N/A   Clear
5:35 AM 19.4 °F 7.9 °F 5.0 °F 54% 29.85 in 10.0 mi NW 10.4 mph - N/A   Clear
5:55 AM 19.4 °F 14.3 °F 3.2 °F 49% 29.84 in 10.0 mi WNW 3.5 mph - N/A   Clear
6:15 AM 17.6 °F - 3.2 °F 53% 29.85 in 10.0 mi Calm Calm - N/A   Clear
6:35 AM 17.6 °F 9.3 °F 6.8 °F 63% 29.85 in 10.0 mi West 5.8 mph - N/A   Clear
6:55 AM 19.4 °F 7.9 °F 6.8 °F 58% 29.86 in 10.0 mi WNW 10.4 mph 16.1 mph N/A   Clear
7:15 AM 19.4 °F 5.0 °F 6.8 °F 58% 29.85 in 10.0 mi NW 16.1 mph 23.0 mph N/A   Clear
7:55 AM 21.2 °F 8.3 °F 8.6 °F 58% 29.86 in 10.0 mi NW 13.8 mph 17.3 mph N/A   Clear
8:15 AM 23.0 °F 13.1 °F 8.6 °F 54% 29.86 in 10.0 mi West 9.2 mph - N/A   Clear
8:35 AM 23.0 °F 13.1 °F 8.6 °F 54% 29.88 in 10.0 mi West 9.2 mph - N/A   Clear
8:55 AM 24.8 °F 15.3 °F 8.6 °F 50% 29.88 in 10.0 mi WNW 9.2 mph 16.1 mph N/A   Clear
9:15 AM 24.8 °F 11.5 °F 10.4 °F 54% 29.86 in 10.0 mi NW 17.3 mph 26.5 mph N/A   Clear
9:35 AM 24.8 °F 14.6 °F 10.4 °F 54% 29.87 in 10.0 mi NW 10.4 mph 20.7 mph N/A   Clear
9:55 AM 26.6 °F 14.7 °F 12.2 °F 55% 29.88 in 10.0 mi NW 15.0 mph 19.6 mph N/A   Clear
10:15 AM 26.6 °F 18.2 °F 12.2 °F 55% 29.87 in 10.0 mi NW 8.1 mph - N/A   Clear
10:35 AM 28.4 °F 19.1 °F 12.2 °F 51% 29.87 in 10.0 mi WNW 10.4 mph 16.1 mph N/A   Clear
10:55 AM 28.4 °F 20.4 °F 12.2 °F 51% 29.86 in 10.0 mi West 8.1 mph 19.6 mph N/A   Clear
11:15 AM 30.2 °F 22.6 °F 12.2 °F 47% 29.85 in 10.0 mi West 8.1 mph - N/A   Clear
11:35 AM 30.2 °F 22.6 °F 14.0 °F 51% 29.85 in 10.0 mi WSW 8.1 mph - N/A   Clear
11:55 AM 30.2 °F 21.3 °F 14.0 °F 51% 29.84 in 10.0 mi WNW 10.4 mph 17.3 mph N/A   Clear
12:15 PM 30.2 °F 21.3 °F 14.0 °F 51% 29.83 in 10.0 mi NW 10.4 mph 16.1 mph N/A   Mostly Cloudy
12:35 PM 30.2 °F 21.3 °F 15.8 °F 55% 29.82 in 10.0 mi NW 10.4 mph - N/A   Overcast
12:55 PM 30.2 °F 21.9 °F 15.8 °F 55% 29.82 in 10.0 mi NW 9.2 mph - N/A   Overcast
1:15 PM 33.8 °F 26.4 °F 17.6 °F 52% 29.82 in 10.0 mi NW 9.2 mph - N/A   Overcast
1:35 PM 33.8 °F 27.7 °F 17.6 °F 52% 29.82 in 10.0 mi NW 6.9 mph - N/A   Overcast
1:55 PM 32.0 °F 22.1 °F 15.8 °F 51% 29.81 in 10.0 mi NNW 13.8 mph - N/A   Overcast
2:15 PM 32.0 °F 24.2 °F 17.6 °F 55% 29.80 in 10.0 mi NNW 9.2 mph - N/A   Partly Cloudy
2:35 PM 32.0 °F - 17.6 °F 55% 29.81 in 10.0 mi Calm Calm - N/A   Scattered Clouds
2:55 PM 33.8 °F 27.0 °F 17.6 °F 52% 29.81 in 10.0 mi NNW 8.1 mph - N/A   Mostly Cloudy
3:15 PM 32.0 °F 24.2 °F 15.8 °F 51% 29.80 in 10.0 mi NW 9.2 mph - N/A   Scattered Clouds
3:35 PM 30.2 °F 26.7 °F 15.8 °F 55% 29.80 in 10.0 mi NW 3.5 mph - N/A   Clear
3:55 PM 30.2 °F - 17.6 °F 60% 29.80 in 10.0 mi Calm Calm - N/A   Clear
4:15 PM 28.4 °F - 17.6 °F 64% 29.80 in 10.0 mi Calm Calm - N/A   Clear
4:35 PM 28.4 °F - 17.6 °F 64% 29.80 in 10.0 mi Calm Calm - N/A   Clear
4:55 PM 28.4 °F 23.3 °F 17.6 °F 64% 29.79 in 10.0 mi South 4.6 mph - N/A   Clear
5:35 PM 26.6 °F 21.2 °F 15.8 °F 64% 29.78 in 10.0 mi SSE 4.6 mph - N/A   Clear
5:55 PM 26.6 °F 21.2 °F 15.8 °F 64% 29.78 in 10.0 mi SSE 4.6 mph - N/A   Partly Cloudy
6:15 PM 24.8 °F 20.5 °F 15.8 °F 69% 29.77 in 10.0 mi SE 3.5 mph - N/A   Mostly Cloudy
6:35 PM 26.6 °F 20.0 °F 15.8 °F 64% 29.77 in 10.0 mi SSE 5.8 mph - N/A   Scattered Clouds
7:15 PM 24.8 °F 20.5 °F 17.6 °F 74% 29.76 in 10.0 mi SSE 3.5 mph - N/A   Partly Cloudy
7:35 PM 19.4 °F - 12.2 °F 74% 29.76 in 10.0 mi Calm Calm - N/A   Clear
7:55 PM 24.8 °F 20.5 °F 19.4 °F 80% 29.75 in 10.0 mi SSE 3.5 mph - N/A   Mostly Cloudy
8:15 PM 19.4 °F 14.3 °F 12.2 °F 74% 29.75 in 10.0 mi SSE 3.5 mph - N/A   Scattered Clouds
8:35 PM 24.8 °F 19.1 °F 17.6 °F 74% 29.74 in 10.0 mi SSE 4.6 mph - N/A   Mostly Cloudy
8:55 PM 21.2 °F - 15.8 °F 80% 29.73 in 10.0 mi Calm Calm - N/A   Mostly Cloudy
9:15 PM 21.2 °F - 17.6 °F 86% 29.72 in 10.0 mi Calm Calm - N/A   Mostly Cloudy
9:35 PM 21.2 °F - 17.6 °F 86% 29.71 in 10.0 mi Calm Calm - N/A   Overcast
10:35 PM 21.2 °F - 17.6 °F 86% 29.69 in 10.0 mi Calm Calm - N/A   Mostly Cloudy
10:55 PM 21.2 °F - 17.6 °F 86% 29.67 in 10.0 mi Calm Calm - N/A   Overcast
11:15 PM 21.2 °F - 15.8 °F 80% 29.67 in 10.0 mi Calm Calm - N/A   Overcast
11:35 PM 21.2 °F - 15.8 °F 80% 29.66 in 10.0 mi Calm Calm - N/A   Overcast
11:55 PM 21.2 °F - 17.6 °F 86% 29.65 in 10.0 mi Calm Calm - N/A   Overcast